Location: Unspecified
(43.4354°N, 0.0000°E)
Time: 20:52:42
(UTC+00:00)

Transit 2A - Pass Details

Date: 22 June 2019
Orbit: 594 x 964 km, 66.7° (Epoch: 19 July)

Event Time Altitude Azimuth Distance (km) Brightness Sun altitude
Rises 02:07:24 0° 256° (WSW) 3,643 - -17.2°
Exits shadow 02:09:32 - 265° (W) 2,998 8.7 -17.0°
Reaches altitude 10° 02:10:37 10° 271° (W) 2,701 8.5 -16.9°
Maximum altitude 02:15:26 22° 320° (NW) 1,950 8.3 -16.4°
Drops below altitude 10° 02:20:09 10° 10° (N) 2,635 9.9 -16.0°
Sets 02:23:15 0° 26° (NNE) 3,531 11.2 -15.7°
